Flag for Austria Weather past 2 weeks in Gmünd, Lower Austria, Austria

Now
35 °F

Chilly.


Feels Like: 33 °F
Forecast: 26 / 28 °F
Wind: 3 mph from West

Location: Retz

Current Time: Jan 28, 2015 at 10:41:02 AM

Latest Report: Jan 28, 2015 at 10:00 AM


Visibility: N/A

Pressure: 30.08 "Hg

Humidity: 77%

Dew point: 29 °F

Location of GmündLocation

Historic Weather in Gmünd — Graph

°F

Gmünd temperature yesterday

Maximum temperature yesterday: 39 °F (at 1:00 PM)
Minimum temperature yesterday: 28 °F (at 12:00 AM)
Average temperature yesterday: 33 °F

Past Weeks' High & Low Weather Summary

 TemperatureHumidityPressure
High50 °F (Jan 13, 3:00 PM)100% (Jan 20, 3:00 PM)30.35 "Hg (Jan 20, 3:00 PM)
Low28 °F (Jan 27, 12:00 AM)56% (Jan 13, 4:00 PM)29.75 "Hg (Jan 17, 5:00 AM)
Average36 °F87%30.02 "Hg
* Reported Jan 13 9:00 AM — Jan 28 9:00 AM, Gmünd, Weather by CustomWeather, © 2014

Note: Actual official high and low records may vary slightly from our data, if they occured in-between our weather recording intervals... More about our weather records

Advertising

Gmünd weather history for previous 24 hours

 ConditionsComfort  
Time TempWeatherWind HumidityBarometerVisibility
9:00 AM
Jan 28
33 °FChilly.6 mph81%30.08 "HgN/A
8:00 AM34 °FChilly.7 mph81%30.08 "HgN/A
7:00 AM33 °FPassing clouds.6 mph83%30.08 "Hg9 mi
6:00 AM33 °FChilly.6 mph83%30.08 "HgN/A
5:00 AM33 °FChilly.7 mph81%30.08 "HgN/A
4:00 AM34 °FChilly.6 mph81%30.08 "HgN/A
3:00 AM34 °FChilly.7 mph82%30.09 "HgN/A
2:00 AM34 °FChilly.8 mph83%30.09 "HgN/A
1:00 AM35 °FChilly.7 mph82%30.09 "HgN/A
12:00 AM34 °FChilly.6 mph83%30.09 "HgN/A
11:00 PM
Jan 27
34 °FChilly.6 mph82%30.09 "HgN/A
10:00 PM34 °FChilly.6 mph82%30.08 "HgN/A
9:00 PM33 °FChilly.5 mph84%30.08 "HgN/A
8:00 PM35 °FChilly.3 mph82%30.07 "HgN/A
7:00 PM34 °FPassing clouds.2 mph84%30.06 "Hg7 mi
6:00 PM34 °FChilly.2 mph82%30.05 "HgN/A
5:00 PM36 °FChilly.3 mph77%30.02 "HgN/A
4:00 PM38 °FChilly.6 mph74%30.00 "HgN/A
1:00 PM39 °FPassing clouds.8 mph79%29.98 "Hg19 mi
12:00 PM38 °FChilly.9 mph80%29.97 "HgN/A
11:00 AM37 °FChilly.7 mph81%29.98 "HgN/A
10:00 AM34 °FChilly.7 mph86%29.98 "HgN/A
Weather by CustomWeather, © 2014

See weather overviewHow to use our weather pages